Temperature
19 19 19 19 22 24 24 23 23 23 23 21 21 22 22 21 21 20 17 17 17 17 17 17 17 17 17 17 17 17 17 17 17 17 17 17 17 17 17 17 17 17 17 17 17 17 17 17 17
19 19 19 21 24 24 23 23 23 23 22 21 21 21 21 20 18 17 17 16 16 16 16 17 17 17 17 17 17 17 17 17 17 17 17 17 17 17 17 17 17 17 17 17 17 17 17 17 17
19 19 21 23 24 24 23 23 22 21 21 21 21 20 20 19 18 17 16 16 16 16 16 16 17 17 17 17 17 17 17 17 17 17 17 17 16 16 16 17 17 17 17 17 17 17 17 17 17
19 20 22 24 23 23 23 22 22 22 21 21 21 20 18 17 17 17 16 16 16 16 16 16 17 17 17 17 17 17 17 16 16 16 16 16 16 16 16 16 16 16 16 16 17 17 17 17 17
19 22 23 23 23 22 22 22 22 22 22 21 21 20 18 17 17 17 16 16 16 16 16 16 16 16 17 16 17 16 16 16 16 16 16 16 16 16 16 16 16 16 16 16 16 16 16 17 17
21 23 24 23 22 22 22 21 22 22 21 21 21 20 18 17 17 17 16 16 16 16 16 16 16 16 16 16 16 16 16 16 16 16 16 16 16 16 16 16 16 16 16 16 16 16 16 16 16
22 23 23 23 22 22 22 21 21 22 21 20 20 20 18 17 17 17 16 16 16 16 16 16 16 16 16 16 16 16 16 16 16 16 16 16 16 16 16 16 16 16 16 16 16 16 16 16 16
21 23 23 23 22 22 21 21 20 21 20 19 20 20 18 17 17 17 16 16 16 16 16 16 16 16 16 16 16 16 16 16 16 16 16 16 16 16 16 16 16 16 16 16 16 16 16 16 16
21 23 23 22 22 22 21 21 20 20 19 19 19 19 18 17 17 17 17 17 16 16 16 16 16 16 16 16 16 16 16 16 16 16 16 16 16 16 16 16 16 16 16 16 16 16 16 16 16
22 23 22 22 22 22 21 21 20 20 20 19 18 18 17 17 17 17 17 17 17 17 16 16 16 16 16 16 16 16 16 16 16 16 16 16 16 16 16 16 16 16 16 16 16 16 16 16 16
23 22 22 21 21 21 21 21 20 21 21 20 19 18 17 17 17 17 17 17 17 17 16 16 16 16 16 16 16 16 16 16 16 16 16 16 16 16 16 16 16 16 16 16 16 16 16 16 16
22 22 21 21 21 21 21 21 20 20 20 19 19 18 18 18 18 18 17 17 17 17 16 17 17 17 17 16 16 16 16 16 16 16 16 16 16 16 16 16 15 15 16 15 16 15 16 16 16
22 21 21 20 20 20 20 20 20 19 19 19 18 18 18 18 18 18 17 17 17 17 17 17 16 17 17 16 16 16 16 16 16 16 16 16 16 16 16 16 15 15 15 15 15 16 15 15 15
22 21 21 21 20 20 21 20 20 19 19 18 18 18 18 18 18 18 18 17 17 17 17 17 17 17 17 17 16 16 16 16 16 15 15 16 15 16 15 15 15 15 15 15 15 15 15 15 15
21 22 21 21 21 20 21 21 21 19 19 19 19 18 18 18 18 18 18 17 18 17 17 17 17 17 17 16 16 16 16 16 16 16 16 15 15 15 15 15 15 15 15 15 15 15 15 15 15
22 22 21 21 21 21 21 21 21 19 19 19 19 19 18 18 18 18 17 17 17 17 17 17 16 16 16 16 16 16 16 16 16 16 15 15 15 15 15 15 15 15 15 15 15 15 15 15 15
22 22 22 21 21 22 22 21 21 19 19 19 19 19 18 18 18 18 17 17 17 17 17 17 16 16 16 16 16 16 16 16 16 15 15 15 15 15 15 15 15 15 15 15 15 15 15 15 15
22 22 22 21 22 22 22 21 21 20 19 20 19 19 19 19 18 18 17 17 17 17 17 17 16 16 16 16 16 16 16 16 15 15 15 15 15 15 15 15 15 15 15 15 15 15 15 15 15
23 22 22 22 22 21 22 22 22 20 20 20 20 20 19 19 18 18 17 17 17 17 17 17 16 16 16 16 16 16 15 15 15 15 15 15 15 15 15 15 15 15 15 15 15 15 15 14 14
22 22 22 22 22 22 22 22 22 21 21 20 20 20 20 19 19 18 17 17 17 17 17 16 16 16 16 16 16 15 15 15 15 15 15 15 15 15 15 15 15 15 15 15 15 15 15 14 14
22 22 22 22 21 21 21 22 22 22 21 20 20 20 20 19 19 18 17 17 17 17 17 16 16 16 16 16 16 15 15 15 15 15 15 15 15 15 15 15 15 15 15 15 15 14 14 14 14
22 22 22 22 22 22 21 22 22 22 22 21 20 20 20 19 19 18 18 17 17 17 17 16 16 16 16 16 16 15 15 15 15 15 15 15 15 15 15 15 15 15 15 14 14 14 14 14 14
22 22 22 22 22 22 22 22 23 22 22 22 21 20 20 19 19 18 18 17 17 17 17 16 16 16 16 16 16 15 15 15 15 15 15 15 15 15 15 15 15 15 15 14 14 14 14 14 14
22 22 22 22 22 21 22 22 22 23 23 23 22 21 20 20 19 19 18 17 17 17 17 16 16 16 16 16 16 16 15 15 15 15 15 15 15 15 15 15 15 15 14 15 15 14 14 14 14
22 22 21 21 21 22 22 22 23 24 23 23 22 22 20 20 19 19 18 17 17 17 17 17 16 16 16 16 16 16 15 15 15 15 15 15 15 15 15 15 15 15 15 14 14 14 14 14 14
22 22 22 21 22 22 22 22 24 23 22 22 22 21 20 20 19 19 18 18 17 17 17 17 16 16 16 16 16 16 15 15 15 15 15 15 15 15 15 15 15 15 14 14 14 14 14 14 14
22 22 23 22 22 22 23 23 24 23 22 22 22 21 20 20 19 19 18 18 17 17 17 17 16 16 16 16 16 16 16 15 15 15 15 15 15 15 15 15 15 15 14 14 14 14 14 14 14
22 22 22 22 21 21 22 23 23 23 23 23 22 21 20 19 19 19 18 18 17 17 17 17 17 16 16 16 16 15 15 15 15 15 15 15 15 15 15 15 14 14 14 14 14 14 14 14 14
21 22 22 22 22 21 22 23 24 24 23 23 22 21 20 19 19 19 18 18 17 17 17 17 16 16 16 16 16 15 15 15 15 15 15 15 15 15 15 15 14 14 14 14 14 14 14 13 13
22 22 22 21 21 22 22 23 24 23 23 22 22 21 20 19 19 19 18 18 17 17 17 17 16 16 16 16 16 15 15 15 15 15 15 15 15 15 15 14 14 14 14 14 13 13 13 13 13
Wind_Speed
4 3 2 2 3 2 4 4 3 4 4 5 5 5 6 6 5 5 5 5 6 6 7 8 8 8 9 9 9 9 10 10 10 9 10 10 10 10 11 11 10 9 9 10 10 10 10 10 10
2 2 2 3 2 3 4 4 5 6 6 6 6 6 7 7 6 6 5 6 7 7 7 8 8 8 8 9 10 11 11 11 10 10 11 10 10 10 10 10 10 10 10 10 10 10 10 10 10
3 2 2 2 1 2 5 5 7 7 6 4 4 5 5 5 5 5 7 7 8 8 8 10 9 9 9 10 10 10 10 11 11 11 11 11 10 10 9 9 9 9 9 9 9 9 9 9 10
2 2 2 2 5 4 4 6 6 7 6 4 5 6 5 5 4 7 8 8 9 8 9 11 10 10 10 11 11 10 11 11 11 11 10 10 10 9 9 8 8 8 8 8 8 8 9 9 9
2 2 3 4 5 5 5 4 4 5 4 5 6 7 6 5 9 10 9 8 8 8 9 11 11 10 10 10 10 10 10 10 10 10 10 9 9 8 8 8 8 8 8 8 8 8 9 9 9
2 2 3 5 6 6 5 3 4 6 7 7 7 7 6 6 9 9 9 9 8 8 8 9 11 9 10 10 11 10 10 10 10 10 10 9 8 8 8 8 8 8 8 8 8 8 9 9 9
1 1 3 5 6 5 4 3 4 6 7 5 4 6 6 7 8 8 9 9 8 9 8 8 9 10 10 10 10 10 11 11 10 10 10 10 9 9 8 8 8 8 9 9 9 10 10 10 9
1 2 4 4 6 5 4 4 4 5 6 4 3 5 7 8 8 9 9 9 8 7 7 7 8 8 9 11 12 11 11 11 11 10 10 8 8 8 7 7 9 8 9 9 10 9 9 10 10
2 2 3 3 4 5 5 5 4 4 6 4 4 6 10 12 10 10 9 8 8 7 6 6 7 7 8 9 10 9 9 9 8 9 7 4 6 7 7 11 9 9 9 10 10 10 9 8 10
1 2 3 3 3 5 6 5 5 5 7 6 8 10 12 11 10 10 9 9 8 7 6 6 6 6 7 7 7 6 7 6 6 6 6 6 6 7 7 9 9 9 8 9 8 7 6 3 7
1 3 5 4 5 5 6 5 3 5 5 6 9 12 12 11 9 9 8 8 7 7 6 5 5 6 5 5 5 5 5 5 5 6 6 6 5 5 5 5 5 6 5 6 6 4 5 6 7
4 5 4 4 4 5 5 5 4 3 4 6 8 11 12 11 9 8 8 7 7 7 6 4 4 5 4 5 4 4 4 4 4 4 6 5 4 4 5 4 4 4 4 5 4 4 6 7 8
6 5 6 6 6 6 7 6 5 4 6 7 9 10 10 10 9 8 7 7 7 7 5 4 4 4 4 5 3 4 4 4 5 4 4 5 4 4 4 4 4 4 5 5 5 5 7 8 8
6 7 7 6 6 5 7 6 4 5 6 8 9 9 9 9 8 8 7 7 7 7 6 5 4 3 3 4 4 4 5 4 4 4 4 5 4 4 3 4 4 4 4 5 5 7 7 7 8
8 8 7 4 4 4 4 4 4 5 7 8 9 8 8 8 8 7 7 7 6 6 6 5 4 4 4 4 4 4 4 4 4 4 4 5 5 4 4 4 4 4 4 5 6 8 7 7 7
6 5 4 3 3 4 4 3 5 6 7 7 8 8 8 8 7 6 6 6 6 6 6 6 4 4 4 4 4 4 4 4 4 4 4 5 5 5 4 3 3 4 4 5 5 5 6 6 6
5 4 4 4 3 3 4 3 5 6 7 7 7 8 8 7 7 7 7 6 6 6 6 7 6 5 5 5 5 4 5 4 4 4 4 5 5 5 5 4 3 5 4 4 4 5 5 6 6
5 4 3 3 3 4 5 4 5 6 7 7 7 8 8 8 8 8 7 7 7 7 7 7 6 6 6 5 4 4 4 4 4 4 4 4 4 5 5 4 4 4 4 4 4 6 6 6 6
4 4 4 2 2 4 5 5 5 7 8 8 9 9 9 9 9 8 8 8 9 8 8 7 7 6 5 4 4 3 3 3 3 4 4 4 5 5 5 3 4 3 4 4 5 5 6 5 4
5 5 4 3 2 3 4 5 5 7 9 9 10 10 10 10 10 9 9 10 10 9 9 9 8 7 6 4 3 3 3 3 3 3 4 4 5 4 4 4 3 4 4 4 4 4 3 3 1
5 5 4 3 3 3 3 5 7 7 8 9 10 10 10 10 10 10 11 11 10 10 10 8 8 7 6 6 4 4 4 3 3 3 3 3 4 4 4 4 4 3 3 3 3 3 3 3 2
5 3 4 5 5 3 4 3 5 7 9 10 11 11 11 11 11 11 11 11 11 11 10 9 9 8 7 7 6 5 4 3 3 3 3 4 4 4 4 4 4 3 3 3 3 2 2 1 2
3 4 4 5 5 5 5 4 3 6 9 10 11 12 12 12 12 12 12 12 11 11 10 10 9 8 8 7 7 6 5 4 4 4 4 4 4 4 4 4 4 4 3 3 3 2 1 1 1
6 5 4 5 5 5 4 5 3 5 8 8 10 11 12 12 12 11 11 11 10 10 10 10 10 8 8 8 8 7 6 6 5 5 4 4 4 3 4 4 4 4 3 3 3 3 3 2 2
7 5 4 5 4 3 2 5 4 2 4 6 9 10 11 12 11 11 11 11 11 11 11 11 11 9 9 9 8 7 7 7 6 5 5 4 4 3 4 3 3 4 4 4 3 3 3 3 2
8 7 4 3 3 2 4 5 2 0 2 4 6 8 9 11 11 12 12 12 11 12 12 12 12 11 10 9 8 8 7 5 5 5 4 4 4 4 4 3 4 4 4 4 4 3 3 3 3
8 8 5 5 4 4 3 3 3 3 3 4 6 7 9 11 11 11 12 12 11 12 12 12 12 11 10 10 9 8 8 7 6 6 5 4 4 4 4 4 4 4 4 3 3 3 3 3 3
5 5 5 5 4 5 4 5 2 3 4 5 7 7 8 10 10 11 11 11 11 11 11 12 12 11 10 10 9 7 8 7 6 6 6 6 5 5 5 4 4 4 4 4 3 3 3 4 3
7 8 6 5 6 4 4 2 0 3 3 5 6 7 7 9 10 10 10 10 11 11 11 11 11 11 10 10 9 9 8 8 7 7 7 6 6 6 5 5 4 4 4 3 3 4 4 3 3
9 9 9 7 6 6 6 2 2 2 2 4 4 5 7 8 9 9 10 10 11 11 12 12 11 11 10 10 10 9 8 8 8 8 7 7 6 6 5 5 5 4 3 3 4 4 3 3 3
Wind_Direction
149 156 199 240 222 163 101 87 93 106 87 75 72 75 77 56 44 80 97 96 96 94 92 100 91 91 90 91 92 95 95 96 95 93 90 87 86 88 90 91 90 87 85 80 79 77 77 76 73
154 170 219 245 233 146 104 99 100 86 100 104 82 75 76 69 64 90 103 95 98 95 92 88 90 92 92 92 89 87 90 91 92 89 87 85 83 83 82 82 86 85 82 79 77 74 75 75 73
161 228 250 230 161 97 104 98 103 102 106 105 88 66 61 71 84 94 102 105 96 90 89 86 84 90 87 88 88 86 89 91 91 91 88 86 84 82 80 79 82 84 81 80 78 75 76 76 72
207 214 225 164 105 73 91 105 120 125 106 89 107 88 75 50 81 105 113 109 98 90 86 85 80 85 86 88 88 87 90 91 89 87 85 84 83 81 79 79 80 82 82 82 79 78 78 78 75
233 240 176 127 103 92 89 95 128 122 110 101 106 99 85 70 96 109 113 108 100 93 87 86 80 83 87 89 89 88 90 90 88 84 80 78 78 77 76 75 75 77 79 80 82 82 80 79 76
218 222 175 134 116 111 99 97 121 110 108 107 107 102 87 101 106 109 110 106 101 97 93 93 94 90 85 85 87 84 86 86 84 80 75 74 73 74 73 72 74 75 76 78 83 84 80 78 75
258 200 145 133 130 123 102 104 118 121 115 104 110 107 112 115 112 116 111 106 100 96 94 93 99 102 99 86 84 83 81 81 80 78 74 73 72 72 71 73 74 76 76 81 86 85 82 76 72
300 174 142 141 141 117 111 109 93 105 102 104 111 120 129 132 130 124 116 111 106 102 99 98 97 96 99 96 86 84 82 82 81 79 76 79 88 87 89 89 76 77 81 85 88 85 84 81 75
257 195 147 136 141 123 129 127 107 98 111 100 88 98 120 133 139 134 126 122 116 113 106 100 99 94 93 93 95 95 92 89 102 96 91 99 86 84 90 72 76 80 83 86 89 89 91 96 89
255 153 107 95 119 127 129 124 128 135 121 116 113 114 127 140 147 141 137 133 128 125 115 107 99 96 91 88 94 89 90 91 87 87 83 76 76 73 73 87 80 84 90 96 93 101 117 111 89
69 97 112 109 117 128 130 118 126 144 128 135 138 140 144 148 150 143 137 133 129 127 119 116 109 98 94 96 88 85 87 87 81 77 83 81 85 88 79 85 98 98 109 98 106 117 83 80 74
106 94 108 117 125 134 131 126 117 110 114 125 138 145 149 153 152 149 144 139 137 134 129 123 116 110 102 98 90 89 92 89 86 80 77 82 76 71 74 75 69 75 79 85 85 79 84 82 83
117 112 100 107 112 121 122 117 113 110 120 129 137 147 154 154 152 150 148 150 148 140 135 127 123 112 108 103 98 95 87 83 89 78 76 79 77 75 78 80 75 73 78 88 88 85 82 79 75
119 119 113 114 116 124 129 126 130 124 134 140 147 155 160 160 158 156 157 156 152 145 144 140 133 122 118 114 108 91 87 91 82 79 76 77 74 70 74 78 74 72 76 79 88 89 89 83 78
134 125 120 121 131 140 145 133 138 141 150 152 159 160 165 166 167 169 163 162 157 152 151 149 141 135 121 108 95 92 96 95 84 81 74 71 66 67 75 72 83 84 89 92 87 91 93 92 89
161 162 149 131 147 167 196 156 141 155 165 167 168 166 173 174 177 173 171 169 164 161 156 150 149 145 127 117 113 106 99 92 84 79 73 70 67 66 70 74 85 88 90 94 97 100 102 97 89
182 178 160 147 159 174 197 174 157 173 181 181 181 179 179 177 181 181 178 174 171 170 166 161 154 148 133 123 117 105 101 92 85 75 68 64 62 65 76 69 81 97 97 100 105 104 103 98 93
176 179 173 174 167 193 200 195 170 184 195 196 194 191 186 186 187 183 180 177 176 177 174 164 153 154 145 141 129 115 108 100 88 75 66 59 58 65 76 83 91 97 104 104 108 107 98 97 99
180 180 175 175 167 208 211 213 196 190 200 206 202 197 196 194 185 181 182 180 181 179 175 167 165 160 160 154 151 145 132 121 103 82 74 72 66 67 75 76 89 94 101 106 116 116 114 111 111
186 181 174 155 174 225 227 232 215 204 209 213 210 204 200 195 185 181 186 185 186 182 179 175 173 169 169 163 153 146 136 124 102 92 78 77 78 73 75 83 94 100 105 111 113 123 123 112 128
198 205 198 181 167 202 245 232 212 209 216 215 217 211 204 199 197 188 190 191 189 189 183 181 178 175 172 167 157 148 143 146 135 122 104 84 85 81 79 83 85 90 104 109 117 127 127 120 107
207 205 203 197 212 209 236 252 212 206 212 214 214 208 206 202 201 194 193 195 194 192 186 187 185 183 178 178 179 176 173 161 150 138 125 116 101 91 86 88 87 88 94 107 119 116 119 127 118
202 179 199 219 240 243 231 256 220 198 218 215 212 210 205 203 201 198 198 197 196 192 189 191 192 190 187 188 180 188 181 165 157 147 137 134 112 97 95 93 91 89 87 95 97 96 90 95 85
167 169 184 215 239 241 231 247 246 205 225 218 210 209 205 203 202 200 196 193 191 188 189 192 193 192 189 189 187 190 180 175 167 163 153 147 132 112 103 101 97 91 86 90 95 99 94 67 65
199 205 208 209 218 234 205 245 256 226 225 223 214 205 201 199 200 197 194 191 189 188 189 191 192 192 191 192 191 188 187 186 179 171 164 160 144 132 122 119 108 95 93 93 95 93 86 82 73
206 227 244 249 246 244 214 242 240 176 228 225 214 201 196 196 199 199 196 193 192 191 189 192 193 193 192 194 193 191 186 189 180 177 170 162 150 142 136 128 114 107 105 103 96 95 89 85 84
207 222 250 270 268 255 224 234 235 198 206 203 196 191 195 197 199 199 197 194 193 193 193 193 192 191 192 193 192 191 189 188 181 178 172 162 152 143 146 140 128 117 113 110 112 106 105 97 87
234 209 218 238 253 249 242 241 238 196 197 193 194 193 194 195 197 199 200 199 197 195 192 191 193 191 191 192 190 186 187 185 183 177 172 166 161 155 155 152 140 130 124 121 116 113 102 108 96
198 204 222 235 249 263 260 247 245 254 223 209 202 196 194 194 197 198 200 200 196 192 189 190 192 191 189 188 186 185 182 181 180 180 174 170 168 167 165 159 152 141 135 131 131 129 124 121 118
224 223 221 232 233 244 264 268 107 253 243 223 208 194 193 193 196 196 195 193 191 190 189 190 191 190 187 185 183 184 181 180 182 180 176 175 172 171 169 164 161 152 146 140 137 136 138 133 131
Height
1523 1523 1523 1525 1522 1519 1522 1522 1521 1523 1525 1529 1529 1529 1529 1532 1534 1542 1543 1542 1542 1543 1543 1543 1543 1543 1543 1543 1543 1543 1543 1544 1544 1544 1544 1544 1544 1544 1544 1544 1544 1544 1544 1544 1544 1544 1544 1544 1544
1523 1523 1525 1525 1519 1522 1526 1523 1524 1525 1529 1531 1531 1532 1532 1536 1539 1541 1542 1543 1544 1544 1544 1544 1544 1545 1545 1545 1545 1545 1545 1545 1545 1545 1545 1545 1545 1545 1545 1546 1546 1546 1546 1546 1546 1545 1545 1545 1545
1524 1524 1526 1521 1519 1522 1526 1525 1526 1529 1531 1531 1533 1534 1536 1539 1541 1543 1544 1544 1545 1546 1546 1546 1546 1546 1546 1546 1546 1546 1546 1546 1546 1546 1547 1547 1547 1547 1547 1547 1547 1547 1547 1547 1547 1547 1547 1547 1546
1525 1526 1525 1521 1524 1524 1524 1526 1529 1530 1532 1533 1534 1536 1540 1542 1543 1544 1545 1546 1547 1547 1548 1547 1547 1547 1547 1547 1548 1548 1548 1548 1548 1548 1548 1548 1548 1548 1548 1548 1548 1548 1548 1548 1548 1548 1548 1548 1548
1525 1525 1522 1523 1525 1526 1527 1529 1530 1530 1532 1534 1535 1538 1542 1544 1544 1545 1546 1548 1549 1549 1550 1549 1549 1549 1549 1549 1550 1550 1550 1550 1550 1550 1550 1550 1550 1549 1550 1550 1550 1550 1550 1549 1549 1549 1549 1549 1549
1527 1523 1522 1525 1527 1528 1529 1531 1531 1532 1534 1536 1537 1539 1544 1546 1546 1547 1548 1549 1550 1551 1551 1551 1550 1551 1551 1551 1552 1551 1551 1551 1551 1551 1551 1551 1551 1551 1551 1551 1551 1551 1551 1551 1551 1551 1551 1551 1550
1526 1522 1522 1524 1528 1529 1531 1532 1532 1533 1535 1537 1539 1540 1545 1547 1548 1549 1550 1551 1552 1553 1553 1554 1554 1553 1553 1553 1553 1553 1553 1553 1553 1553 1553 1553 1552 1552 1552 1553 1552 1552 1552 1552 1552 1552 1552 1552 1551
1525 1523 1524 1525 1528 1531 1533 1534 1535 1535 1537 1540 1540 1541 1545 1548 1549 1550 1552 1553 1554 1555 1555 1556 1556 1557 1557 1556 1555 1555 1555 1555 1555 1555 1554 1554 1554 1554 1554 1554 1554 1554 1553 1553 1554 1553 1553 1553 1552
1526 1524 1525 1527 1529 1531 1533 1534 1537 1538 1539 1541 1542 1543 1546 1548 1550 1552 1553 1555 1556 1556 1557 1558 1558 1558 1559 1558 1557 1557 1557 1557 1557 1557 1556 1557 1558 1557 1557 1556 1556 1555 1555 1555 1555 1555 1555 1554 1554
1525 1525 1527 1528 1528 1531 1533 1535 1537 1538 1539 1542 1544 1546 1547 1549 1551 1553 1554 1556 1557 1558 1559 1560 1560 1560 1560 1560 1560 1560 1560 1559 1560 1560 1559 1559 1559 1558 1558 1557 1557 1557 1557 1557 1557 1556 1556 1556 1556
1525 1526 1529 1531 1531 1533 1534 1536 1537 1538 1539 1542 1544 1546 1549 1550 1552 1554 1556 1557 1558 1559 1560 1561 1561 1561 1562 1562 1562 1562 1561 1561 1561 1562 1561 1560 1560 1560 1560 1560 1560 1559 1559 1559 1559 1559 1559 1558 1558
1527 1529 1530 1532 1533 1534 1535 1537 1538 1539 1541 1543 1545 1547 1549 1551 1553 1555 1556 1558 1559 1560 1561 1562 1563 1563 1563 1563 1563 1563 1563 1563 1563 1563 1563 1562 1562 1562 1562 1561 1561 1561 1561 1560 1560 1560 1560 1560 1560
1528 1531 1533 1534 1535 1536 1537 1538 1539 1541 1543 1544 1546 1548 1550 1551 1553 1555 1557 1559 1560 1561 1562 1563 1564 1564 1564 1564 1564 1564 1564 1565 1565 1564 1564 1564 1564 1564 1563 1563 1562 1562 1562 1562 1561 1562 1561 1561 1561
1530 1532 1534 1535 1536 1537 1538 1539 1541 1543 1544 1545 1547 1549 1550 1552 1554 1556 1557 1559 1560 1562 1563 1564 1564 1565 1565 1565 1566 1566 1565 1565 1565 1565 1565 1565 1565 1565 1564 1564 1563 1563 1563 1563 1563 1563 1562 1562 1562
1531 1532 1534 1536 1536 1538 1538 1539 1541 1543 1545 1546 1547 1549 1551 1552 1554 1556 1557 1559 1561 1562 1563 1564 1565 1565 1566 1566 1566 1566 1566 1567 1567 1566 1567 1566 1566 1565 1565 1565 1564 1564 1564 1564 1564 1564 1564 1564 1564
1530 1530 1534 1536 1536 1538 1539 1541 1541 1543 1544 1545 1547 1549 1551 1552 1554 1556 1557 1559 1561 1562 1564 1564 1565 1566 1567 1567 1567 1567 1568 1568 1567 1567 1567 1567 1567 1566 1566 1566 1566 1565 1565 1565 1565 1566 1566 1566 1566
1529 1531 1534 1535 1535 1536 1537 1538 1540 1543 1544 1545 1546 1548 1550 1552 1554 1555 1557 1559 1560 1562 1563 1564 1565 1566 1567 1567 1568 1568 1568 1568 1568 1568 1568 1568 1568 1567 1567 1566 1566 1567 1567 1567 1567 1567 1568 1567 1567
1531 1530 1532 1534 1534 1535 1535 1536 1538 1542 1543 1544 1545 1547 1548 1550 1552 1554 1556 1558 1560 1561 1563 1564 1565 1566 1567 1568 1568 1569 1569 1569 1569 1569 1568 1568 1568 1568 1568 1567 1568 1568 1568 1568 1568 1568 1568 1568 1569
1525 1528 1532 1532 1533 1534 1534 1534 1535 1539 1541 1542 1543 1545 1547 1549 1551 1553 1555 1557 1559 1561 1562 1564 1565 1566 1567 1568 1569 1569 1569 1570 1569 1569 1569 1569 1569 1568 1568 1568 1568 1568 1569 1569 1570 1569 1570 1570 1570
1526 1529 1531 1532 1533 1534 1533 1533 1533 1535 1538 1539 1541 1542 1544 1547 1550 1552 1553 1556 1558 1560 1561 1563 1564 1565 1566 1567 1568 1569 1569 1570 1570 1569 1570 1570 1569 1569 1569 1569 1569 1569 1569 1570 1570 1570 1571 1571 1571
1527 1528 1529 1532 1533 1533 1534 1533 1531 1532 1535 1537 1538 1540 1542 1545 1547 1550 1552 1554 1556 1558 1560 1562 1563 1565 1566 1567 1568 1568 1569 1570 1570 1570 1570 1570 1570 1570 1570 1570 1570 1570 1571 1571 1571 1571 1571 1572 1572
1529 1527 1528 1531 1532 1533 1534 1535 1527 1527 1530 1532 1535 1537 1539 1542 1545 1547 1550 1552 1554 1556 1558 1560 1562 1564 1565 1566 1567 1568 1569 1570 1570 1571 1570 1570 1571 1571 1571 1571 1571 1571 1571 1571 1572 1572 1572 1572 1572
1526 1527 1528 1529 1530 1531 1530 1532 1525 1523 1526 1527 1530 1533 1536 1539 1542 1545 1547 1550 1552 1554 1556 1559 1561 1563 1564 1565 1566 1567 1569 1569 1570 1570 1571 1571 1571 1571 1571 1572 1572 1572 1572 1572 1572 1572 1572 1572 1573
1526 1528 1529 1528 1529 1535 1529 1531 1526 1519 1520 1521 1525 1528 1532 1536 1539 1542 1545 1547 1550 1552 1554 1556 1559 1561 1562 1564 1565 1567 1568 1568 1569 1570 1571 1571 1571 1572 1572 1572 1572 1573 1573 1572 1572 1572 1572 1572 1572
1525 1528 1535 1536 1535 1532 1525 1527 1521 1513 1516 1518 1521 1524 1528 1532 1535 1539 1542 1544 1547 1549 1551 1554 1556 1559 1561 1563 1564 1566 1567 1568 1569 1570 1570 1571 1572 1572 1572 1573 1573 1573 1573 1573 1573 1573 1573 1573 1573
1523 1524 1532 1538 1535 1527 1525 1524 1514 1513 1516 1518 1520 1522 1526 1529 1532 1535 1538 1541 1544 1546 1548 1551 1554 1556 1559 1561 1563 1564 1566 1567 1568 1569 1570 1571 1571 1572 1572 1573 1573 1573 1573 1573 1573 1573 1573 1573 1573
1521 1521 1519 1524 1524 1527 1520 1515 1511 1512 1514 1516 1517 1520 1523 1526 1529 1532 1535 1538 1541 1543 1546 1549 1551 1554 1557 1559 1561 1563 1564 1565 1566 1568 1569 1570 1571 1571 1572 1573 1573 1573 1573 1573 1573 1573 1573 1573 1573
1517 1518 1522 1526 1532 1531 1522 1517 1513 1510 1510 1513 1515 1517 1520 1524 1527 1530 1533 1535 1538 1541 1543 1546 1549 1552 1554 1557 1559 1560 1562 1563 1565 1567 1568 1569 1570 1571 1571 1572 1573 1573 1573 1573 1573 1573 1573 1573 1573
1519 1520 1519 1520 1521 1527 1527 1519 1505 1506 1508 1510 1513 1515 1518 1521 1524 1527 1530 1532 1535 1538 1541 1544 1546 1549 1552 1554 1557 1559 1560 1562 1564 1565 1567 1568 1569 1570 1571 1572 1572 1572 1573 1573 1573 1573 1573 1574 1574
1512 1513 1516 1523 1522 1520 1522 1517 1503 1506 1508 1510 1512 1515 1517 1520 1522 1525 1527 1530 1532 1535 1538 1541 1544 1547 1549 1552 1554 1556 1558 1560 1562 1564 1565 1567 1568 1569 1570 1571 1571 1572 1572 1572 1573 1573 1573 1573 1574